FW8889 Weather Reports


time (UTC)temp
C
wind
direction
speed
KPH
gust
KPH
rain 1hr
cm
rain 24hr
cm
rain mn
cm
humidity
%
barometer
mb
20260906060150 16 0 0.0 0.0 0.00 0.08 0.00 80 1014.0
20260906054611 16 0 0.0 0.0 0.00 0.08 0.00 80 1013.9
20260906053102 16 0 0.0 0.0 0.00 0.08 0.00 80 1014.1
20260906051602 16 0 0.0 0.0 0.00 0.08 0.00 80 1014.1
20260906050105 16 0 0.0 0.0 0.00 0.08 0.00 80 1014.1
20260906044600 16 0 0.0 0.0 0.00 0.08 0.00 80 1014.0
20260906043057 16 0 0.0 0.0 0.00 0.08 0.00 80 1014.0
20260906041601 16 0 0.0 0.0 0.00 0.08 0.00 80 1014.1
20260906040052 16 0 0.0 0.0 0.00 0.08 0.00 80 1014.0
20260906034601 16 0 0.0 0.0 0.00 0.08 0.08 81 1013.9
20260906033055 16 0 0.0 0.0 0.00 0.08 0.08 81 1013.8
20260906031625 16 0 0.0 0.0 0.00 0.08 0.08 81 1013.8
20260906030051 16 0 0.0 0.0 0.00 0.08 0.08 81 1013.8
20260906024557 16 0 0.0 0.0 0.00 0.08 0.08 82 1013.7
20260906023108 16 0 0.0 0.0 0.00 0.08 0.08 81 1013.7
20260906021552 16 0 0.0 0.0 0.00 0.08 0.08 81 1013.7
20260906014555 16 0 0.0 0.0 0.00 0.08 0.08 82 1013.8
20260906013104 16 0 0.0 0.0 0.00 0.08 0.08 82 1013.7
20260906011556 16 0 0.0 0.0 0.00 0.08 0.08 83 1013.8
20260906010104 16 0 0.0 0.0 0.00 0.08 0.08 83 1013.6
20260906004558 16 0 0.0 0.0 0.00 0.08 0.08 83 1013.6
20260906003052 16 0 0.0 0.0 0.00 0.08 0.08 83 1013.5
20260906001559 16 0 0.0 0.0 0.00 0.08 0.08 83 1013.4
20260906000108 16 0 0.0 0.0 0.00 0.08 0.08 84 1013.3
20260905234556 16 0 0.0 0.0 0.00 0.08 0.08 84 1013.2
20260905233056 16 0 0.0 0.0 0.00 0.08 0.08 84 1013.1
20260905231551 17 0 0.0 0.0 0.00 0.08 0.08 85 1013.1
20260905230059 17 0 0.0 0.0 0.00 0.08 0.08 85 1013.0
20260905224603 17 0 0.0 0.0 0.00 0.08 0.08 85 1012.9
20260905223100 17 0 0.0 1.6 0.00 0.08 0.08 85 1012.9
20260905221600 17 0 0.0 1.6 0.00 0.08 0.08 85 1012.9
20260905220054 17 0 0.0 1.6 0.00 0.08 0.08 85 1012.7
20260905214558 17 0 0.0 1.6 0.00 0.08 0.08 85 1012.4
20260905213104 17 0 0.0 1.6 0.00 0.08 0.08 84 1012.3
20260905211554 17 0 0.0 1.6 0.00 0.08 0.08 85 1012.4
20260905210104 17 0 0.0 3.2 0.03 0.08 0.08 85 1012.4
20260905204548 17 0 0.0 1.6 0.08 0.08 0.08 85 1012.2
20260905203100 17 0 0.0 1.6 0.08 0.08 0.08 85 1012.3
20260905201552 18 0 0.0 1.6 0.08 0.08 0.08 85 1012.3
20260905200130 18 0 0.0 3.2 0.05 0.05 0.05 82 1012.2
20260905194600 20 146 1.6 4.8 0.00 0.00 0.00 78 1012.0
20260905193104 20 142 0.0 4.8 0.00 0.00 0.00 78 1011.8
20260905191552 20 136 1.6 4.8 0.00 0.00 0.00 77 1012.0
20260905184554 20 225 1.6 4.8 0.00 0.00 0.00 76 1011.7
20260905183055 20 0 0.0 3.2 0.00 0.00 0.00 77 1011.7
20260905181603 20 0 0.0 4.8 0.00 0.00 0.00 77 1011.8
20260905180111 20 150 1.6 3.2 0.00 0.00 0.00 78 1011.7
20260905174556 19 150 1.6 6.4 0.00 0.00 0.00 77 1011.8
20260905173112 19 0 0.0 6.4 0.00 0.00 0.00 80 1011.7
20260905171555 18 0 1.6 4.8 0.00 0.00 0.00 81 1011.7
20260905170105 19 200 0.0 4.8 0.00 0.00 0.00 80 1011.7
20260905164603 20 198 1.6 4.8 0.00 0.00 0.00 77 1011.6
20260905163055 20 188 0.0 3.2 0.00 0.00 0.00 76 1011.3
20260905161551 20 196 0.0 3.2 0.00 0.00 0.00 77 1011.2
20260905154602 20 0 0.0 3.2 0.00 0.00 0.00 76 1011.3
20260905153101 20 0 0.0 4.8 0.00 0.00 0.00 76 1011.2
20260905151604 20 0 0.0 3.2 0.00 0.00 0.00 77 1011.2
20260905144556 20 0 0.0 3.2 0.00 0.00 0.00 78 1011.3
20260905143103 20 0 0.0 3.2 0.00 0.00 0.00 79 1011.2
20260905141550 20 0 0.0 3.2 0.00 0.00 0.00 79 1011.4
20260905140103 20 236 0.0 3.2 0.00 0.00 0.00 80 1011.2
20260905134601 20 0 0.0 3.2 0.00 0.00 0.00 81 1011.2
20260905133101 18 0 0.0 1.6 0.00 0.00 0.00 82 1010.9
20260905131557 18 0 0.0 4.8 0.00 0.00 0.00 83 1010.7
20260905130051 18 307 0.0 1.6 0.00 0.00 0.00 84 1010.8
20260905124555 17 0 0.0 3.2 0.00 0.00 0.00 85 1010.6
20260905123103 17 0 0.0 1.6 0.00 0.00 0.00 85 1010.7
20260905121553 17 0 0.0 1.6 0.00 0.00 0.00 85 1010.3
20260905120100 17 0 0.0 1.6 0.00 0.00 0.00 84 1010.3
20260905114609 17 0 0.0 1.6 0.00 0.00 0.00 84 1010.0
20260905113059 16 0 0.0 3.2 0.00 0.00 0.00 83 1009.9
20260905111639 16 319 0.0 3.2 0.00 0.00 0.00 81 1009.8
20260905110050 15 0 0.0 1.6 0.00 0.00 0.00 82 1009.8
20260905104549 15 0 0.0 0.0 0.00 0.00 0.00 82 1009.7
20260905103045 15 0 0.0 0.0 0.00 0.00 0.00 83 1009.6
20260905101555 15 0 0.0 0.0 0.00 0.00 0.00 84 1009.4
20260905100058 15 0 0.0 0.0 0.00 0.00 0.00 84 1009.4
20260905094548 15 0 0.0 0.0 0.00 0.00 0.00 84 1009.3
20260905093115 15 0 0.0 0.0 0.00 0.00 0.00 84 1009.2
20260905091554 15 0 0.0 0.0 0.00 0.00 0.00 85 1009.2
20260905090054 15 0 0.0 0.0 0.00 0.00 0.00 85 1009.1
20260905084548 15 0 0.0 0.0 0.00 0.00 0.00 85 1009.1
20260905083056 16 0 0.0 0.0 0.00 0.00 0.00 85 1009.0
20260905081553 16 0 0.0 3.2 0.00 0.00 0.00 85 1009.0
20260905080052 16 0 0.0 0.0 0.00 0.00 0.00 86 1009.0
20260905074550 16 0 0.0 1.6 0.00 0.00 0.00 85 1008.9
20260905073056 16 0 0.0 1.6 0.00 0.00 0.00 85 1009.1
20260905071553 16 0 0.0 0.0 0.00 0.00 0.00 85 1009.1
20260905070058 17 0 0.0 0.0 0.00 0.00 0.00 85 1009.2
20260905064619 17 0 0.0 0.0 0.00 0.00 0.00 85 1009.3
20260905063101 17 0 0.0 0.0 0.00 0.00 0.00 85 1009.3
20260905061553 17 0 0.0 1.6 0.00 0.00 0.00 85 1009.5